CCM951 LKPR-LFKJ

Flight info

Callsign CCM951
Flight time N/A
Altitude 38000
Route BALTU DCT DONAD DCT OKG L984 KULOK Z715 ANELA N869 TEDGO DCT SONOM/N0438F370 DCT GERSA DCT SOSON DCT ODINA DCT UNITA DCT OLETI/N0351F190 M858 TORTU
Aircraft A320/M-SDE2E3FGIJ1RWXYZ/LB1

Departure

Time 2026-05-04 17:42
Airport Václav Havel Airport Prague (LKPR)

Arrival

Time N/A
Airport Ajaccio Napoléon Bonaparte airport (LFKJ)
Time Latitude Longitude Altitude Speed Heading
2026-05-04 17:06 50.10461 14.26533 1171 ft 0 kts 34°
2026-05-04 17:29 50.10433 14.26476 1170 ft 0 kts 124°
2026-05-04 17:34 50.10426 14.26491 1169 ft 7 kts 124°
2026-05-04 17:35 50.10286 14.26556 1172 ft 6 kts 216°
2026-05-04 17:35 50.10232 14.26543 1173 ft 7 kts 143°
2026-05-04 17:35 50.10167 14.26667 1177 ft 15 kts 128°
2026-05-04 17:36 50.10122 14.26758 1182 ft 17 kts 127°
2026-05-04 17:36 50.10052 14.26905 1191 ft 16 kts 126°
2026-05-04 17:36 50.09985 14.27047 1197 ft 17 kts 126°
2026-05-04 17:36 50.09909 14.27213 1201 ft 20 kts 126°
2026-05-04 17:37 50.09806 14.27393 1204 ft 24 kts 136°
2026-05-04 17:37 50.09687 14.27574 1206 ft 23 kts 135°
2026-05-04 17:37 50.09600 14.27708 1210 ft 17 kts 136°
2026-05-04 17:37 50.09516 14.27834 1213 ft 17 kts 136°
2026-05-04 17:38 50.09443 14.27944 1215 ft 14 kts 136°
2026-05-04 17:38 50.09369 14.28056 1214 ft 16 kts 136°
2026-05-04 17:38 50.09300 14.28160 1215 ft 9 kts 136°
2026-05-04 17:38 50.09258 14.28225 1213 ft 6 kts 135°
2026-05-04 17:39 50.09237 14.28258 1212 ft 5 kts 136°
2026-05-04 17:39 50.09182 14.28285 1211 ft 9 kts 182°
2026-05-04 17:39 50.09149 14.28267 1211 ft 0 kts 211°
2026-05-04 17:40 50.09148 14.28266 1211 ft 1 kts 211°
2026-05-04 17:40 50.09109 14.28219 1211 ft 9 kts 220°
2026-05-04 17:40 50.09067 14.28147 1208 ft 9 kts 256°
2026-05-04 17:41 50.09087 14.28080 1208 ft 0 kts 304°
2026-05-04 17:41 50.09093 14.28066 1208 ft 9 kts 306°
2026-05-04 17:41 50.09246 14.27746 1212 ft 73 kts 307°
2026-05-04 17:42 50.09687 14.26841 1209 ft 133 kts 305°
2026-05-04 17:42 50.10355 14.25469 1266 ft 177 kts 306°
2026-05-04 17:42 50.11118 14.23874 1755 ft 188 kts 308°
2026-05-04 17:42 50.11916 14.22213 2429 ft 195 kts 307°
2026-05-04 17:43 50.12732 14.20515 3057 ft 197 kts 307°
2026-05-04 17:43 50.13548 14.18797 3678 ft 198 kts 306°
2026-05-04 17:43 50.14376 14.17037 4214 ft 205 kts 305°
2026-05-04 17:43 50.15229 14.15203 4752 ft 212 kts 304°
2026-05-04 17:44 50.16099 14.13314 5314 ft 217 kts 304°
2026-05-04 17:44 50.16868 14.11272 5916 ft 219 kts 292°
2026-05-04 17:44 50.17317 14.08996 6513 ft 224 kts 279°
2026-05-04 17:44 50.17459 14.06506 6965 ft 239 kts 269°
2026-05-04 17:45 50.17397 14.03811 7349 ft 261 kts 263°
2026-05-04 17:45 50.17155 14.00929 7943 ft 272 kts 260°
2026-05-04 17:45 50.16869 13.97999 8797 ft 274 kts 260°
2026-05-04 17:45 50.16602 13.95050 9721 ft 275 kts 261°
2026-05-04 17:46 50.16361 13.92053 10339 ft 286 kts 262°
2026-05-04 17:46 50.16135 13.88895 10834 ft 300 kts 262°
2026-05-04 17:46 50.15920 13.85587 11340 ft 313 kts 262°
2026-05-04 17:46 50.15710 13.82156 11842 ft 322 kts 262°
2026-05-04 17:47 50.15503 13.78653 12479 ft 326 kts 262°
2026-05-04 17:47 50.15297 13.75117 13252 ft 329 kts 262°
2026-05-04 17:47 50.15090 13.71547 13983 ft 332 kts 262°
2026-05-04 17:47 50.14877 13.67941 14632 ft 336 kts 262°
2026-05-04 17:48 50.14661 13.64302 15254 ft 339 kts 262°
2026-05-04 17:48 50.14437 13.60614 15778 ft 344 kts 263°
2026-05-04 17:48 50.14209 13.56903 15929 ft 344 kts 263°
2026-05-04 17:48 50.13978 13.53182 15962 ft 344 kts 263°
2026-05-04 17:49 50.13750 13.49473 16002 ft 346 kts 263°
2026-05-04 17:49 50.13518 13.45722 16626 ft 348 kts 263°
2026-05-04 17:49 50.13284 13.41946 17272 ft 352 kts 263°
2026-05-04 17:49 50.13047 13.38136 17895 ft 355 kts 263°
2026-05-04 17:50 50.12808 13.34283 18459 ft 359 kts 263°
2026-05-04 17:50 50.12562 13.30396 18991 ft 362 kts 263°
2026-05-04 17:50 50.12316 13.26522 19533 ft 365 kts 263°
2026-05-04 17:50 50.12067 13.22575 20068 ft 368 kts 263°
2026-05-04 17:51 50.11814 13.18589 20627 ft 371 kts 263°
2026-05-04 17:51 50.11551 13.14526 21187 ft 374 kts 263°
2026-05-04 17:51 50.11287 13.10481 21742 ft 376 kts 263°
2026-05-04 17:51 50.11024 13.06465 22291 ft 379 kts 263°
2026-05-04 17:52 50.10752 13.02309 22840 ft 382 kts 263°
2026-05-04 17:52 50.10484 12.98233 23364 ft 385 kts 263°
2026-05-04 17:52 50.10209 12.94081 23821 ft 387 kts 263°
2026-05-04 17:52 50.09930 12.89897 24255 ft 389 kts 263°
2026-05-04 17:53 50.09647 12.85694 24705 ft 391 kts 263°
2026-05-04 17:53 50.09360 12.81480 25129 ft 392 kts 263°
2026-05-04 17:53 50.09070 12.77241 25532 ft 394 kts 263°
2026-05-04 17:53 50.08778 12.72988 25931 ft 396 kts 263°
2026-05-04 17:54 50.08485 12.68712 26319 ft 398 kts 263°
2026-05-04 17:54 50.08190 12.64417 26698 ft 400 kts 263°
2026-05-04 17:54 50.07891 12.60101 27077 ft 402 kts 263°
2026-05-04 17:54 50.07587 12.55761 27450 ft 404 kts 263°
2026-05-04 17:55 50.07279 12.51403 27817 ft 406 kts 263°
2026-05-04 17:55 50.06944 12.47033 28172 ft 408 kts 258°
2026-05-04 17:55 50.06091 12.42833 28514 ft 409 kts 246°
2026-05-04 17:55 50.04959 12.38772 28857 ft 410 kts 246°
2026-05-04 17:56 50.03821 12.34758 29217 ft 412 kts 246°
2026-05-04 17:56 50.02659 12.30681 29546 ft 413 kts 246°
2026-05-04 17:56 50.01489 12.26584 29872 ft 415 kts 246°
2026-05-04 17:56 50.00317 12.22479 30158 ft 417 kts 246°
2026-05-04 17:57 49.99139 12.18347 30375 ft 419 kts 247°
2026-05-04 17:57 49.97954 12.14195 30618 ft 421 kts 246°
2026-05-04 17:57 49.96764 12.10037 30865 ft 422 kts 246°
2026-05-04 17:57 49.95567 12.05860 31108 ft 424 kts 246°
2026-05-04 17:58 49.94367 12.01680 31346 ft 425 kts 246°
2026-05-04 17:58 49.93165 11.97498 31691 ft 423 kts 246°
2026-05-04 17:58 49.91965 11.93336 32052 ft 422 kts 246°
2026-05-04 17:58 49.90768 11.89193 32394 ft 421 kts 246°
2026-05-04 17:59 49.89571 11.85065 32767 ft 419 kts 245°
2026-05-04 17:59 49.88379 11.80959 33125 ft 417 kts 245°
2026-05-04 17:59 49.86002 11.72791 33792 ft 414 kts 245°
2026-05-04 18:00 49.84822 11.68730 34097 ft 414 kts 245°
2026-05-04 18:00 49.83640 11.64666 34373 ft 413 kts 245°
2026-05-04 18:00 49.82460 11.60619 34605 ft 413 kts 245°
2026-05-04 18:00 49.81279 11.56570 34833 ft 413 kts 244°
2026-05-04 18:01 49.80097 11.52519 35071 ft 412 kts 245°
2026-05-04 18:01 49.78913 11.48482 35300 ft 412 kts 244°
2026-05-04 18:01 49.77725 11.44451 35529 ft 412 kts 244°
2026-05-04 18:02 49.75348 11.36401 35981 ft 411 kts 245°
2026-05-04 18:02 49.74163 11.32392 36177 ft 411 kts 245°
2026-05-04 18:02 49.72976 11.28376 36381 ft 410 kts 245°
2026-05-04 18:02 49.71788 11.24370 36580 ft 410 kts 244°
2026-05-04 18:03 49.70597 11.20369 36769 ft 410 kts 244°
2026-05-04 18:03 49.69403 11.16375 36961 ft 409 kts 244°
2026-05-04 18:03 49.68208 11.12383 37155 ft 409 kts 244°
2026-05-04 18:03 49.67011 11.08405 37333 ft 408 kts 242°
2026-05-04 18:04 49.65544 11.04668 37503 ft 408 kts 233°
2026-05-04 18:04 49.63720 11.01395 37648 ft 408 kts 226°
2026-05-04 18:04 49.59733 10.95082 37936 ft 408 kts 226°
2026-05-04 18:05 49.57756 10.91947 37951 ft 408 kts 226°
2026-05-04 18:05 49.53810 10.85679 37950 ft 407 kts 226°
2026-05-04 18:06 49.47907 10.76349 37975 ft 407 kts 226°
2026-05-04 18:06 49.43951 10.70133 37982 ft 407 kts 226°
2026-05-04 18:07 49.39979 10.63867 37977 ft 407 kts 227°
2026-05-04 18:07 49.36088 10.57568 37979 ft 407 kts 227°
2026-05-04 18:08 49.32182 10.51301 37977 ft 407 kts 226°
2026-05-04 18:08 49.28202 10.45226 37984 ft 407 kts 225°
2026-05-04 18:09 49.20175 10.33033 37997 ft 407 kts 226°
2026-05-04 18:10 49.16211 10.26865 37990 ft 407 kts 226°
2026-05-04 18:10 49.12473 10.20405 37994 ft 406 kts 231°
2026-05-04 18:11 49.08941 10.13686 37999 ft 406 kts 231°
2026-05-04 18:11 49.05399 10.06995 37970 ft 406 kts 231°
2026-05-04 18:12 49.01850 10.00306 37965 ft 406 kts 231°
2026-05-04 18:12 48.98296 9.93621 37965 ft 406 kts 231°
2026-05-04 18:13 48.94739 9.86939 37972 ft 406 kts 231°
2026-05-04 18:14 48.89393 9.76935 37969 ft 406 kts 231°
2026-05-04 18:14 48.85827 9.70261 37967 ft 407 kts 230°
2026-05-04 18:15 48.78668 9.56935 37978 ft 408 kts 230°
2026-05-04 18:16 48.75085 9.50329 37976 ft 409 kts 230°
2026-05-04 18:16 48.71453 9.43625 37975 ft 409 kts 230°
2026-05-04 18:17 48.66069 9.33686 37957 ft 409 kts 230°
2026-05-04 18:17 48.62106 9.27553 37964 ft 409 kts 216°
2026-05-04 18:18 48.59676 9.25325 37968 ft 409 kts 206°
2026-05-04 18:18 48.54269 9.22585 37962 ft 411 kts 198°
2026-05-04 18:19 48.46023 9.18962 37976 ft 412 kts 198°
2026-05-04 18:19 48.40526 9.16528 37982 ft 412 kts 198°
2026-05-04 18:20 48.35022 9.14109 37987 ft 412 kts 198°
2026-05-04 18:20 48.29514 9.11697 37988 ft 412 kts 198°
2026-05-04 18:21 48.24002 9.09297 37979 ft 413 kts 198°
2026-05-04 18:21 48.18484 9.06901 37982 ft 413 kts 198°
2026-05-04 18:22 48.12958 9.04493 37985 ft 413 kts 198°
2026-05-04 18:22 48.07431 9.02093 37969 ft 414 kts 198°
2026-05-04 18:23 48.02831 9.00102 37970 ft 415 kts 198°
2026-05-04 18:23 47.97240 8.97690 37975 ft 416 kts 198°
2026-05-04 18:24 47.91716 8.95317 37982 ft 416 kts 198°
2026-05-04 18:24 47.86150 8.92926 37978 ft 417 kts 198°
2026-05-04 18:25 47.80575 8.90536 37978 ft 417 kts 198°
2026-05-04 18:25 47.75014 8.88056 37986 ft 417 kts 200°
2026-05-04 18:26 47.69520 8.85307 37993 ft 417 kts 201°
2026-05-04 18:26 47.64031 8.82502 38000 ft 417 kts 201°
2026-05-04 18:27 47.58524 8.79758 38001 ft 418 kts 200°
2026-05-04 18:27 47.52999 8.77056 38000 ft 418 kts 200°
2026-05-04 18:28 47.47473 8.74364 38002 ft 418 kts 200°
2026-05-04 18:28 47.41949 8.71667 37998 ft 418 kts 201°
2026-05-04 18:29 47.36422 8.68963 38000 ft 418 kts 201°
2026-05-04 18:29 47.30898 8.66272 38003 ft 418 kts 201°
2026-05-04 18:30 47.22610 8.62241 38005 ft 418 kts 201°
2026-05-04 18:31 47.17091 8.59564 38014 ft 418 kts 201°
2026-05-04 18:31 47.11604 8.56909 38015 ft 418 kts 201°
2026-05-04 18:32 47.06030 8.54302 38009 ft 420 kts 196°
2026-05-04 18:32 47.00227 8.53729 38009 ft 427 kts 178°
2026-05-04 18:33 46.94318 8.54617 38025 ft 427 kts 178°
2026-05-04 18:33 46.88398 8.55464 38028 ft 427 kts 178°
2026-05-04 18:34 46.82486 8.56301 38013 ft 426 kts 178°
2026-05-04 18:34 46.76560 8.57143 38025 ft 429 kts 178°
2026-05-04 18:35 46.70622 8.57994 38054 ft 429 kts 178°
2026-05-04 18:35 46.64683 8.58846 38080 ft 429 kts 178°
2026-05-04 18:36 46.58752 8.59687 38094 ft 428 kts 178°
2026-05-04 18:36 46.52824 8.60526 38095 ft 428 kts 178°
2026-05-04 18:37 46.46900 8.61367 38099 ft 428 kts 178°
2026-05-04 18:37 46.40971 8.62202 38103 ft 428 kts 178°
2026-05-04 18:38 46.35042 8.63040 38103 ft 428 kts 178°
2026-05-04 18:38 46.29111 8.63871 38106 ft 428 kts 178°
2026-05-04 18:39 46.23188 8.64702 38080 ft 428 kts 178°
2026-05-04 18:39 46.17262 8.65537 38088 ft 428 kts 178°
2026-05-04 18:40 46.11337 8.66364 38092 ft 428 kts 178°
2026-05-04 18:40 46.05422 8.67273 38096 ft 428 kts 177°
2026-05-04 18:41 45.99512 8.68331 38092 ft 428 kts 176°
2026-05-04 18:41 45.93605 8.69407 38089 ft 428 kts 176°
2026-05-04 18:42 45.87732 8.70439 38070 ft 428 kts 177°
2026-05-04 18:42 45.81815 8.71434 38061 ft 428 kts 178°
2026-05-04 18:43 45.75857 8.72431 38062 ft 428 kts 177°
2026-05-04 18:43 45.69976 8.73440 38078 ft 429 kts 177°
2026-05-04 18:44 45.64055 8.74461 38080 ft 428 kts 177°
2026-05-04 18:44 45.58136 8.75467 38078 ft 428 kts 178°
2026-05-04 18:45 45.52220 8.76460 38086 ft 428 kts 178°
2026-05-04 18:45 45.46300 8.77462 38086 ft 428 kts 178°
2026-05-04 18:46 45.40377 8.78472 38082 ft 428 kts 178°
2026-05-04 18:46 45.34458 8.79484 38090 ft 428 kts 178°
2026-05-04 18:47 45.28540 8.80490 38091 ft 428 kts 178°
2026-05-04 18:47 45.22620 8.81471 38105 ft 428 kts 178°
2026-05-04 18:48 45.16707 8.82450 38120 ft 428 kts 178°
2026-05-04 18:48 45.10798 8.83443 38124 ft 427 kts 178°
2026-05-04 18:49 45.04935 8.84421 38108 ft 427 kts 178°
2026-05-04 18:49 44.99032 8.85400 38075 ft 427 kts 179°
2026-05-04 18:50 44.93135 8.86385 38086 ft 427 kts 178°
2026-05-04 18:50 44.87241 8.87371 38089 ft 426 kts 178°
2026-05-04 18:51 44.81354 8.88346 38085 ft 426 kts 179°
2026-05-04 18:51 44.75473 8.89308 38094 ft 426 kts 179°
2026-05-04 18:52 44.69585 8.90271 38102 ft 426 kts 179°
2026-05-04 18:52 44.63703 8.91245 38105 ft 426 kts 179°
2026-05-04 18:53 44.57822 8.92208 38111 ft 425 kts 179°
2026-05-04 18:53 44.51941 8.93179 38120 ft 426 kts 179°
2026-05-04 18:54 44.46059 8.94149 38126 ft 425 kts 179°
2026-05-04 18:54 44.40181 8.95108 38126 ft 425 kts 179°
2026-05-04 18:55 44.34305 8.96057 38127 ft 425 kts 179°
2026-05-04 18:55 44.25545 8.97482 38079 ft 424 kts 180°
2026-05-04 18:56 44.19682 8.98431 38088 ft 424 kts 180°
2026-05-04 18:56 44.13822 8.99381 38090 ft 424 kts 180°
2026-05-04 18:57 44.07963 9.00321 38090 ft 424 kts 180°
2026-05-04 18:57 44.02102 9.01263 38079 ft 424 kts 180°
2026-05-04 18:58 43.96242 9.02209 38084 ft 424 kts 181°
2026-05-04 18:58 43.90456 9.02027 38082 ft 413 kts 192°
2026-05-04 18:59 43.84729 9.01317 38059 ft 414 kts 192°
2026-05-04 18:59 43.78990 9.00614 38059 ft 414 kts 191°
2026-05-04 19:00 43.73240 8.99939 38065 ft 415 kts 191°
2026-05-04 19:00 43.67491 8.99275 37971 ft 415 kts 191°
2026-05-04 19:01 43.64650 8.98944 37682 ft 416 kts 191°
2026-05-04 19:01 43.61764 8.98608 37403 ft 416 kts 191°
2026-05-04 19:01 43.58880 8.98274 37134 ft 416 kts 191°
2026-05-04 19:01 43.55995 8.97942 36868 ft 416 kts 191°
2026-05-04 19:02 43.53112 8.97613 36600 ft 416 kts 191°
2026-05-04 19:02 43.50235 8.97271 36346 ft 415 kts 192°
2026-05-04 19:02 43.47356 8.96911 36071 ft 415 kts 192°
2026-05-04 19:02 43.44482 8.96547 35818 ft 415 kts 192°
2026-05-04 19:03 43.41611 8.96184 35567 ft 414 kts 192°
2026-05-04 19:03 43.38777 8.95651 35313 ft 408 kts 199°
2026-05-04 19:03 43.36074 8.94606 35071 ft 400 kts 204°
2026-05-04 19:03 43.33435 8.93415 34824 ft 398 kts 204°
2026-05-04 19:04 43.30808 8.92242 34582 ft 396 kts 204°
2026-05-04 19:04 43.28194 8.91083 34329 ft 393 kts 204°
2026-05-04 19:04 43.25606 8.89941 34097 ft 389 kts 204°
2026-05-04 19:04 43.23044 8.88813 33830 ft 386 kts 204°
2026-05-04 19:05 43.20496 8.87688 33555 ft 384 kts 204°
2026-05-04 19:05 43.17961 8.86564 33288 ft 382 kts 204°
2026-05-04 19:05 43.15436 8.85442 33027 ft 381 kts 204°
2026-05-04 19:05 43.12915 8.84325 32758 ft 380 kts 204°
2026-05-04 19:06 43.10405 8.83214 32499 ft 379 kts 204°
2026-05-04 19:06 43.07902 8.82104 32228 ft 377 kts 204°
2026-05-04 19:06 43.05411 8.81000 31971 ft 376 kts 204°
2026-05-04 19:06 43.02927 8.79900 31713 ft 375 kts 204°
2026-05-04 19:07 43.00446 8.78805 31462 ft 374 kts 204°
2026-05-04 19:07 42.97975 8.77714 31212 ft 373 kts 204°
2026-05-04 19:07 42.95505 8.76628 30957 ft 373 kts 204°
2026-05-04 19:07 42.93072 8.75559 30715 ft 372 kts 204°
2026-05-04 19:08 42.90614 8.74479 30475 ft 371 kts 203°
2026-05-04 19:08 42.88160 8.73402 30214 ft 370 kts 203°
2026-05-04 19:08 42.85709 8.72327 29954 ft 370 kts 203°
2026-05-04 19:08 42.83263 8.71253 29695 ft 368 kts 202°
2026-05-04 19:09 42.80833 8.70184 29418 ft 367 kts 202°
2026-05-04 19:09 42.78408 8.69120 29144 ft 366 kts 202°
2026-05-04 19:09 42.75989 8.68063 28873 ft 365 kts 202°
2026-05-04 19:09 42.73578 8.67013 28599 ft 364 kts 202°
2026-05-04 19:10 42.71170 8.65966 28332 ft 363 kts 202°
2026-05-04 19:10 42.68768 8.64921 28048 ft 362 kts 201°
2026-05-04 19:10 42.66374 8.63877 27791 ft 361 kts 201°
2026-05-04 19:10 42.63986 8.62838 27532 ft 360 kts 201°
2026-05-04 19:11 42.61615 8.61809 27217 ft 355 kts 201°
2026-05-04 19:11 42.59275 8.60793 26795 ft 352 kts 201°
2026-05-04 19:11 42.56956 8.59784 26375 ft 349 kts 201°
2026-05-04 19:11 42.54653 8.58783 25956 ft 346 kts 200°
2026-05-04 19:12 42.52368 8.57790 25508 ft 344 kts 200°
2026-05-04 19:12 42.48591 8.56154 24779 ft 342 kts 200°
2026-05-04 19:12 42.46332 8.55175 24323 ft 341 kts 199°
2026-05-04 19:13 42.44076 8.54197 23866 ft 340 kts 199°
2026-05-04 19:13 42.41819 8.53222 23346 ft 341 kts 199°
2026-05-04 19:13 42.39564 8.52250 22857 ft 339 kts 199°
2026-05-04 19:13 42.37323 8.51286 22386 ft 337 kts 199°
2026-05-04 19:14 42.35095 8.50325 21916 ft 336 kts 199°
2026-05-04 19:14 42.32875 8.49366 21459 ft 334 kts 199°
2026-05-04 19:14 42.30663 8.48414 21003 ft 333 kts 199°
2026-05-04 19:14 42.28479 8.47476 20558 ft 328 kts 199°
2026-05-04 19:15 42.26310 8.46546 20110 ft 327 kts 199°
2026-05-04 19:15 42.24146 8.45616 19664 ft 326 kts 199°
2026-05-04 19:15 42.21247 8.44565 19077 ft 327 kts 190°
2026-05-04 19:15 42.19710 8.44393 18779 ft 328 kts 186°
2026-05-04 19:16 42.17432 8.44222 18334 ft 328 kts 186°
2026-05-04 19:16 42.15151 8.44052 17848 ft 328 kts 186°
2026-05-04 19:16 42.12883 8.43883 17418 ft 325 kts 186°
2026-05-04 19:16 42.10635 8.43718 16981 ft 320 kts 186°
2026-05-04 19:17 42.08462 8.43562 16557 ft 306 kts 186°
2026-05-04 19:17 42.06361 8.43407 16173 ft 301 kts 186°
2026-05-04 19:17 42.04299 8.43250 15785 ft 301 kts 186°
2026-05-04 19:17 42.02180 8.43086 15389 ft 301 kts 186°
2026-05-04 19:18 42.00122 8.42928 15006 ft 301 kts 186°
2026-05-04 19:18 41.98032 8.42771 14617 ft 301 kts 186°
2026-05-04 19:18 41.95951 8.42617 14173 ft 295 kts 186°
2026-05-04 19:18 41.93937 8.42467 13792 ft 288 kts 187°
2026-05-04 19:19 41.91935 8.42316 13370 ft 288 kts 186°
2026-05-04 19:19 41.89935 8.42164 12984 ft 288 kts 186°
2026-05-04 19:19 41.87936 8.42014 12595 ft 287 kts 186°
2026-05-04 19:19 41.85943 8.41862 12205 ft 287 kts 186°
2026-05-04 19:20 41.83953 8.41710 11814 ft 286 kts 186°
2026-05-04 19:20 41.81963 8.41560 11414 ft 286 kts 186°
2026-05-04 19:20 41.79977 8.41411 11021 ft 286 kts 186°
2026-05-04 19:20 41.77997 8.41263 10645 ft 285 kts 186°
2026-05-04 19:21 41.76021 8.41118 10294 ft 282 kts 186°
2026-05-04 19:21 41.74086 8.40977 9821 ft 274 kts 186°
2026-05-04 19:21 41.72216 8.40837 9395 ft 267 kts 186°
2026-05-04 19:21 41.70364 8.40695 9000 ft 266 kts 185°
2026-05-04 19:22 41.68520 8.40611 8603 ft 266 kts 178°
2026-05-04 19:22 41.66720 8.41190 8199 ft 270 kts 159°
2026-05-04 19:22 41.65136 8.42578 7739 ft 277 kts 142°
2026-05-04 19:22 41.63962 8.44698 7191 ft 289 kts 119°
2026-05-04 19:23 41.63355 8.47251 6847 ft 291 kts 102°